CW6888 Weather Reports


time (UTC)temp
F
wind
direction
speed
knots
gust
knots
rain 1hr
in
rain 24hr
in
rain mn
in
humidity
%
barometer
mb
20260507065813 51 355 0.0 1.7 0.02 0.29 0.05 90 1011.5
20260507064824 51 355 0.0 1.7 0.02 0.29 0.05 90 1011.6
20260507063816 51 344 0.0 1.7 0.02 0.29 0.05 89 1011.7
20260507062829 51 344 0.9 4.3 0.03 0.29 0.05 89 1011.9
20260507061821 51 340 1.7 8.7 0.02 0.28 0.04 88 1011.7
20260507060833 51 53 2.6 7.0 0.02 0.28 0.04 87 1011.7
20260507055813 52 28 2.6 7.8 0.01 0.27 0.03 88 1011.5
20260507054845 52 21 3.5 7.0 0.02 0.27 0.03 88 1011.8
20260507053837 52 32 2.6 7.0 0.02 0.27 0.03 88 1011.7
20260507052826 53 332 0.9 4.3 0.01 0.26 0.02 88 1011.5
20260507051818 53 22 1.7 5.2 0.01 0.26 0.02 88 1011.7
20260507050829 53 11 2.6 6.1 0.02 0.26 0.02 87 1011.6
20260507045814 53 333 3.5 7.8 0.01 0.25 0.01 88 1011.7
20260507044827 54 38 1.7 7.0 0.01 0.25 0.01 88 1011.7
20260507043818 54 9 1.7 4.3 0.01 0.25 0.01 88 1011.3
20260507042845 54 38 1.7 5.2 0.02 0.25 0.01 87 1011.4
20260507041815 55 24 3.5 5.2 0.02 0.25 0.01 87 1010.9
20260507040826 55 26 2.6 4.3 0.02 0.24 0.00 87 1011.1
20260507035832 55 61 0.9 5.2 0.02 0.24 0.24 87 1010.5
20260507034845 55 340 2.6 4.3 0.02 0.24 0.24 87 1010.9
20260507033815 55 336 2.6 7.0 0.02 0.24 0.24 87 1010.8
20260507032847 56 21 3.5 6.1 0.01 0.23 0.23 87 1010.9
20260507031817 56 22 4.3 7.8 0.01 0.23 0.23 87 1010.5
20260507030829 57 337 2.6 9.6 0.00 0.22 0.22 86 1010.7
20260507025814 58 43 4.3 9.6 0.00 0.22 0.22 87 1010.8
20260507024855 58 16 5.2 9.6 0.00 0.22 0.22 87 1010.8
20260507023818 58 15 2.6 7.0 0.01 0.22 0.22 88 1010.4
20260507022830 59 339 1.7 4.3 0.01 0.22 0.22 88 1010.3
20260507021822 59 36 1.7 5.2 0.01 0.22 0.22 88 1010.5
20260507020852 59 18 2.6 5.2 0.01 0.22 0.22 88 1010.4
20260507015816 60 38 1.7 7.0 0.02 0.22 0.22 88 1010.3
20260507014824 60 17 2.6 7.8 0.02 0.22 0.22 88 1010.5
20260507013817 61 294 3.5 7.0 0.01 0.21 0.21 88 1010.4
20260507012829 62 355 2.6 4.3 0.01 0.21 0.21 88 1010.7
20260507011820 62 32 1.7 5.2 0.01 0.21 0.21 87 1010.7
20260507010832 63 19 2.6 5.2 0.01 0.21 0.21 87 1010.5
20260507005836 63 56 2.6 11.3 0.00 0.20 0.20 86 1010.4
20260507004827 64 20 4.3 13.0 0.00 0.20 0.20 87 1010.7
20260507003818 65 178 0.0 0.0 0.00 0.20 0.20 86 1009.8
20260507002829 65 178 0.0 0.0 0.00 0.20 0.20 86 1009.8
20260507001842 65 178 0.0 0.0 0.00 0.20 0.20 86 1009.7
20260507000815 65 178 0.0 0.0 0.00 0.20 0.20 85 1009.5
20260506235824 65 178 0.0 0.0 0.00 0.20 0.20 85 1009.0
20260506234821 65 178 0.0 0.0 0.00 0.20 0.20 85 1009.1
20260506233814 66 178 0.0 0.9 0.00 0.20 0.20 85 1009.0
20260506232826 66 178 0.0 0.9 0.00 0.20 0.20 85 1008.9
20260506231840 66 178 0.0 0.9 0.00 0.20 0.20 85 1008.9
20260506230825 66 178 0.9 2.6 0.00 0.20 0.20 84 1008.6
20260506225839 66 192 0.9 2.6 0.00 0.20 0.20 84 1009.0
20260506224823 66 193 0.0 2.6 0.00 0.20 0.20 84 1008.8
20260506223814 66 192 0.0 1.7 0.00 0.20 0.20 84 1008.9
20260506222830 66 188 0.0 2.6 0.00 0.20 0.20 84 1009.0
20260506221824 66 189 0.0 2.6 0.00 0.20 0.20 85 1008.9
20260506220816 65 179 0.0 3.5 0.00 0.20 0.20 84 1009.0
20260506215822 66 215 0.0 4.3 0.00 0.20 0.20 84 1009.0
20260506214851 66 176 0.9 2.6 0.00 0.20 0.20 83 1008.9
20260506213821 66 202 0.0 2.6 0.00 0.20 0.20 83 1008.8
20260506212813 66 189 0.9 2.6 0.00 0.20 0.20 83 1008.4
20260506211830 66 219 1.7 4.3 0.00 0.20 0.20 82 1008.4
20260506210823 67 235 0.9 9.6 0.00 0.20 0.20 82 1008.3
20260506205814 67 190 0.0 6.1 0.00 0.20 0.20 83 1008.3
20260506204831 67 230 1.7 4.3 0.00 0.20 0.20 83 1008.2
20260506203817 66 153 0.9 6.1 0.00 0.20 0.20 84 1008.1
20260506202826 66 74 1.7 6.1 0.00 0.20 0.20 83 1008.2
20260506201820 66 229 1.7 6.1 0.00 0.20 0.20 83 1008.2
20260506200819 67 332 1.7 6.1 0.00 0.20 0.20 84 1008.2
20260506195827 66 181 1.7 7.0 0.00 0.20 0.20 85 1008.2
20260506194822 65 185 0.9 4.3 0.00 0.20 0.20 87 1008.1
20260506193816 64 178 1.7 4.3 0.00 0.20 0.20 88 1008.3
20260506192830 63 189 0.9 2.6 0.00 0.20 0.20 88 1008.3
20260506191839 63 182 1.7 4.3 0.01 0.20 0.20 88 1008.4
20260506190822 63 180 1.7 4.3 0.01 0.20 0.20 89 1008.6
20260506185841 63 190 1.7 4.3 0.01 0.20 0.20 89 1008.6
20260506184825 62 191 1.7 4.3 0.01 0.20 0.20 90 1008.6
20260506183819 62 159 1.7 4.3 0.01 0.20 0.20 90 1008.7
20260506182832 62 199 1.7 4.3 0.01 0.20 0.20 91 1008.8
20260506181826 61 179 0.9 4.3 0.00 0.19 0.19 91 1008.8
20260506180819 61 164 1.7 3.5 0.00 0.19 0.19 91 1009.1
20260506175825 61 220 1.7 7.8 0.00 0.19 0.19 91 1009.2
20260506174818 60 142 1.7 6.1 0.00 0.19 0.19 91 1009.2
20260506173831 60 216 1.7 5.2 0.00 0.19 0.19 91 1009.2
20260506172844 60 208 2.6 5.2 0.00 0.19 0.19 91 1009.1
20260506171852 60 175 1.7 4.3 0.00 0.19 0.19 91 1009.1
20260506170844 60 163 2.6 5.2 0.00 0.19 0.19 91 1009.1
20260506165830 60 194 2.6 5.2 0.00 0.19 0.19 92 1009.1
20260506164853 59 177 1.7 5.2 0.00 0.19 0.19 91 1009.2
20260506163815 59 196 2.6 6.1 0.00 0.19 0.19 92 1009.1
20260506162827 59 181 1.7 3.5 0.01 0.19 0.19 91 1009.3
20260506161819 59 212 1.7 5.2 0.02 0.19 0.19 91 1009.4
20260506160832 59 217 3.5 5.2 0.03 0.19 0.19 91 1009.4
20260506155816 59 179 2.6 7.0 0.05 0.19 0.19 92 1009.3
20260506154850 59 209 2.6 5.2 0.08 0.19 0.19 91 1009.1
20260506153822 59 199 3.5 5.2 0.09 0.19 0.19 91 1009.1
20260506152816 59 173 3.5 5.2 0.08 0.18 0.18 91 1009.2
20260506151833 59 169 2.6 5.2 0.08 0.17 0.17 91 1009.8
20260506150829 59 191 1.7 5.2 0.07 0.16 0.16 91 1010.0
20260506145814 59 177 2.6 7.0 0.06 0.14 0.14 90 1010.0
20260506144827 60 200 1.7 5.2 0.04 0.11 0.11 90 1010.1
20260506143839 60 188 1.7 7.0 0.04 0.10 0.10 90 1010.0
20260506142822 60 174 2.6 5.2 0.06 0.10 0.10 90 1009.8
20260506141842 60 180 2.6 5.2 0.07 0.09 0.09 89 1009.5
20260506140829 60 187 3.5 6.1 0.08 0.09 0.09 89 1009.9
20260506135834 60 184 2.6 5.2 0.07 0.08 0.08 89 1010.0
20260506134827 60 194 1.7 3.5 0.07 0.07 0.07 88 1010.1
20260506133839 60 177 2.6 4.3 0.06 0.06 0.06 87 1010.2
20260506132821 61 178 1.7 3.5 0.04 0.04 0.04 86 1010.2
20260506131832 61 207 1.7 4.3 0.02 0.02 0.02 85 1010.0
20260506130825 62 257 1.7 2.6 0.01 0.01 0.01 84 1010.1
20260506125830 62 187 1.7 4.3 0.01 0.01 0.01 83 1010.0
20260506124822 62 180 2.6 4.3 0.00 0.00 0.00 82 1010.1
20260506123814 63 190 2.6 4.3 0.00 0.00 0.00 81 1010.1
20260506122827 63 197 2.6 4.3 0.00 0.00 0.00 80 1010.2
20260506121820 63 200 2.6 5.2 0.00 0.00 0.00 80 1010.4
20260506120834 63 187 2.6 6.1 0.00 0.00 0.00 79 1010.5
20260506115819 63 185 3.5 7.8 0.00 0.00 0.00 79 1010.3
20260506114833 63 231 2.6 5.2 0.00 0.00 0.00 79 1010.1
20260506113816 63 178 1.7 5.2 0.00 0.00 0.00 79 1009.9
20260506112828 63 188 2.6 5.2 0.00 0.00 0.00 79 1010.0
20260506111821 64 185 1.7 7.0 0.00 0.00 0.00 78 1009.7
20260506110815 64 197 3.5 6.1 0.00 0.00 0.00 78 1009.8
20260506105821 64 184 3.5 7.0 0.00 0.00 0.00 77 1009.7
20260506104832 64 193 3.5 6.1 0.00 0.00 0.00 77 1009.6
20260506103824 64 186 3.5 8.7 0.00 0.00 0.00 77 1009.4
20260506102835 64 190 2.6 7.0 0.00 0.00 0.00 77 1009.4
20260506101826 64 190 2.6 7.8 0.00 0.00 0.00 77 1009.4
20260506100818 64 194 3.5 6.1 0.00 0.00 0.00 76 1009.4
20260506095819 64 188 3.5 5.2 0.00 0.00 0.00 76 1009.4
20260506094832 64 182 3.5 5.2 0.00 0.00 0.00 75 1009.4
20260506093824 64 188 3.5 5.2 0.00 0.00 0.00 75 1009.2
20260506092815 65 175 2.6 5.2 0.00 0.00 0.00 74 1009.3
20260506091828 65 180 1.7 5.2 0.00 0.00 0.00 73 1009.3
20260506090841 65 195 2.6 5.2 0.00 0.00 0.00 73 1009.5
20260506085824 65 196 3.5 6.1 0.00 0.00 0.00 73 1009.6
20260506084837 65 173 2.6 6.1 0.00 0.00 0.00 72 1009.6
20260506083822 66 199 3.5 6.1 0.00 0.00 0.00 72 1009.7
20260506082844 66 184 2.6 6.1 0.00 0.00 0.00 71 1009.7
20260506081836 66 188 2.6 6.1 0.00 0.00 0.00 70 1009.6
20260506080818 66 190 3.5 5.2 0.00 0.00 0.00 69 1009.4
20260506072816 68 185 2.6 5.2 0.00 0.00 0.00 67 1009.7
20260506071829 68 190 2.6 5.2 0.00 0.00 0.00 66 1009.8
20260506070820 68 183 2.6 5.2 0.00 0.00 0.00 65 1009.8